Grand Forks, ND

2:31 PM CDT on July 26, 2017 (GMT -0500)
Grand Forks International

Weather History for KGFK - December, 2012

Change the Weather History Date:

Tuesday, December 11, 2012

  Actual Average Record
Temperature  
Mean Temperature 4 °F 13 °F  
Max Temperature 9 °F 21 °F 49 °F (2002)
Min Temperature -2 °F 4 °F -25 °F (1945)
Degree Days  
Heating Degree Days 61 52  
Month to date heating degree days 517 552  
Since 1 July heating degree days 2645 2751  
Cooling Degree Days 0 0  
Month to date cooling degree days 0 0  
Year to date cooling degree days 572 379  
Moisture  
Dew Point -3 °F    
Average Humidity 77    
Maximum Humidity 86    
Minimum Humidity 68    
Precipitation  
Precipitation T in 0.01 in 0.38 in (1996)
Month to date precipitation 0.19 0.21  
Year to date precipitation 16.96 20.41  
Snow  
Snow 0.10 in 0.30 in 4.50 in (1949)
Month to date snowfall 2.0 3.6  
Since 1 July snowfall 11.7 12.8  
Snow Depth 2.00 in    
Sea Level Pressure  
Sea Level Pressure 29.88 in    
Wind  
Wind Speed 9 mph (North)    
Max Wind Speed 17 mph    
Max Gust Speed 21 mph    
Visibility 9 miles    
Events Snow    
T = Trace of Precipitation, MM = Missing Value Source: NWS Daily Summary

Daily Weather History Graph

Daily Weather History Graph

Search for Another Location

Airport or City:

Trip Planner

Search our weather history database for the weather conditions in past years. The results will help you decide how hot, cold, wet, or windy it might be!

Date:

Astronomy

Dec. 11, 2012 Rise Set
Actual Time 8:08 AM CST 4:35 PM CST
Civil Twilight 7:32 AM CST 5:11 PM CST
Nautical Twilight 6:53 AM CST 5:51 PM CST
Astronomical Twilight 6:15 AM CST 6:29 PM CST
Moon 6:00 AM CST (12/11) 3:19 PM CST (12/11)
Length of Visible Light 9h 39m
Length of Day
8h 26m
Waning Crescent, 4% of the Moon is Illuminated
Dec 11
Waning Crescent
Dec 13
New
Dec 19
First Quarter
Dec 28
Full
Jan 4
Last Quarter

Hourly Weather History & Observations

Time (CST) Temp. Windchill Dew Point Humidity Pressure Visibility Wind Dir Wind Speed Gust Speed Precip Events Conditions
12:53 AM 3.9 °F -9.4 °F -0.0 °F 84% 29.77 in 10.0 mi WNW 8.1 mph - N/A   Scattered Clouds
1:53 AM 3.0 °F -12.5 °F -2.0 °F 80% 29.78 in 10.0 mi WNW 10.4 mph - N/A   Clear
2:53 AM 3.0 °F -11.5 °F -2.9 °F 76% 29.79 in 10.0 mi NW 9.2 mph - N/A   Clear
3:18 AM 3.2 °F -11.3 °F -0.4 °F 85% 29.74 in 10.0 mi WNW 9.2 mph - N/A   Mostly Cloudy
3:49 AM 6.8 °F -4.8 °F -0.4 °F 72% 29.74 in 10.0 mi NW 6.9 mph - N/A   Overcast
3:53 AM 6.1 °F -6.8 °F -0.0 °F 76% 29.80 in 10.0 mi NW 8.1 mph - N/A   Overcast
4:06 AM 6.8 °F -6.9 °F 1.4 °F 79% 29.74 in 10.0 mi NW 9.2 mph - N/A   Overcast
4:53 AM 7.0 °F -6.6 °F 1.9 °F 80% 29.82 in 10.0 mi NW 9.2 mph - N/A   Overcast
5:53 AM 9.0 °F -6.6 °F 3.0 °F 77% 29.83 in 10.0 mi NNW 12.7 mph - 0.00 in   Overcast
6:53 AM 9.0 °F -5.9 °F 3.0 °F 77% 29.86 in 7.0 mi NNW 11.5 mph - 0.00 in Snow Light Snow
7:53 AM 8.1 °F -7.7 °F 1.9 °F 76% 29.88 in 3.0 mi NNW 12.7 mph - 0.00 in Snow Light Snow
8:53 AM 7.0 °F -8.3 °F -0.0 °F 73% 29.89 in 9.0 mi NNW 11.5 mph - 0.00 in   Overcast
9:53 AM 7.0 °F -8.3 °F 1.0 °F 77% 29.91 in 4.0 mi NNW 11.5 mph - 0.00 in Snow Light Snow
10:11 AM 6.8 °F -10.7 °F 1.4 °F 79% 29.85 in 1.8 mi North 15.0 mph - 0.00 in Snow Light Snow
10:23 AM 5.0 °F -13.0 °F -0.4 °F 78% 29.86 in 3.0 mi North 15.0 mph - 0.00 in Snow Light Snow
10:53 AM 3.9 °F -13.7 °F -2.9 °F 73% 29.93 in 10.0 mi North 13.8 mph - 0.00 in   Overcast
11:53 AM 3.9 °F -12.2 °F -5.1 °F 66% 29.94 in 10.0 mi North 11.5 mph - N/A   Mostly Cloudy
12:21 PM 3.2 °F -11.3 °F -5.8 °F 66% 29.87 in 10.0 mi NNW 9.2 mph - N/A   Scattered Clouds
12:53 PM 5.0 °F -8.1 °F -4.0 °F 66% 29.94 in 10.0 mi North 8.1 mph - N/A   Partly Cloudy
1:30 PM 5.0 °F -6.9 °F -4.0 °F 66% 29.87 in 10.0 mi North 6.9 mph - N/A   Mostly Cloudy
1:53 PM 5.0 °F -5.6 °F -4.0 °F 66% 29.94 in 10.0 mi North 5.8 mph - N/A   Scattered Clouds
2:53 PM 3.9 °F -5.3 °F -4.0 °F 70% 29.95 in 10.0 mi North 4.6 mph - N/A   Scattered Clouds
3:12 PM 3.2 °F -6.2 °F -5.8 °F 66% 29.87 in 10.0 mi NNE 4.6 mph - N/A   Mostly Cloudy
3:43 PM 3.2 °F -7.8 °F -5.8 °F 66% 29.87 in 10.0 mi NE 5.8 mph - N/A   Scattered Clouds
3:53 PM 3.9 °F -6.9 °F -5.1 °F 66% 29.95 in 10.0 mi NE 5.8 mph - N/A   Partly Cloudy
4:51 PM 1.4 °F -6.2 °F -5.8 °F 72% 29.89 in 10.0 mi ENE 3.5 mph - N/A   Mostly Cloudy
4:53 PM 1.9 °F -5.6 °F -6.0 °F 69% 29.96 in 10.0 mi ENE 3.5 mph - N/A   Mostly Cloudy
5:53 PM 1.4 °F -9.9 °F -5.8 °F 72% 29.89 in 10.0 mi ENE 5.8 mph - N/A   Overcast
6:26 PM -0.4 °F -10.4 °F -5.8 °F 78% 29.90 in 10.0 mi ENE 4.6 mph - N/A   Scattered Clouds
6:53 PM -0.0 °F -11.6 °F -6.0 °F 76% 29.98 in 10.0 mi East 5.8 mph - N/A   Mostly Cloudy
7:10 PM -0.4 °F -12.0 °F -7.6 °F 72% 29.91 in 10.0 mi East 5.8 mph - N/A   Scattered Clouds
7:53 PM -0.9 °F -11.0 °F -7.1 °F 75% 29.97 in 10.0 mi East 4.6 mph - N/A   Scattered Clouds
8:53 PM -0.0 °F -11.6 °F -6.0 °F 76% 29.97 in 10.0 mi East 5.8 mph - N/A   Mostly Cloudy
9:53 PM 1.9 °F -12.9 °F -6.0 °F 69% 29.96 in 10.0 mi ESE 9.2 mph - N/A   Overcast
10:53 PM 3.0 °F -12.5 °F -4.0 °F 73% 29.95 in 10.0 mi SE 10.4 mph - N/A   Overcast
11:53 PM 5.0 °F -10.0 °F -2.9 °F 70% 29.94 in 9.0 mi SE 10.4 mph - 0.00 in Snow Light Snow